Franklin, PA

3:27 AM EST on December 11, 2019 (GMT -0500)
Venango Regional

Weather History for KFKL - October, 2019

Change the Weather History Date:

Thursday, October 17, 2019

  Actual Average Record
Temperature  
Mean Temperature 42 °F -  
Max Temperature 43 °F 60 °F 85 °F (1938)
Min Temperature 41 °F 39 °F 25 °F (1937)
Degree Days  
Heating Degree Days 23    
Moisture  
Dew Point 39 °F    
Average Humidity 92    
Maximum Humidity 96    
Minimum Humidity 87    
Precipitation  
Precipitation 0.13 in - - ()
Sea Level Pressure  
Sea Level Pressure 29.75 in    
Wind  
Wind Speed 13 mph (WNW)    
Max Wind Speed 18 mph    
Max Gust Speed 28 mph    
Visibility 8 miles    
Events Rain    
Averages and records for this station are not official NWS values.
T = Trace of Precipitation, MM = Missing Value Source: NWS Daily Summary

Daily Weather History Graph

Daily Weather History Graph

Search for Another Location

Airport or City:

Astronomy

Oct. 17, 2019 Rise Set
Actual Time 7:33 AM EDT 6:35 PM EDT
Civil Twilight 7:05 AM EDT 7:03 PM EDT
Nautical Twilight 6:33 AM EDT 7:35 PM EDT
Astronomical Twilight 6:01 AM EDT 8:07 PM EDT
Moon 9:04 PM EDT (10/17) 11:05 AM EDT (10/17)
Length of Visible Light 11h 58m
Length of Day
11h 02m
Waning Gibbous, 87% of the Moon is Illuminated
Oct 17
Waning Gibbous
Oct 21
Last Quarter
Oct 27
New
Nov 4
First Quarter
Nov 12
Full

Hourly Weather History & Observations

Time (EDT) Temp. Windchill Dew Point Humidity Pressure Visibility Wind Dir Wind Speed Gust Speed Precip Events Conditions
12:07 AM 42.8 °F 37.0 °F 39.2 °F 87% 29.61 in 10.0 mi WNW 10.4 mph 18.4 mph 0.01 in Rain Light Rain
12:56 AM 42.1 °F 36.6 °F 39.9 °F 92% 29.63 in 9.0 mi WNW 9.2 mph 18.4 mph 0.03 in Rain Rain
1:22 AM 41.0 °F 32.5 °F 37.4 °F 87% 29.61 in 10.0 mi WNW 17.3 mph 25.3 mph 0.01 in Rain Light Rain
1:56 AM 41.0 °F 33.9 °F 39.0 °F 93% 29.63 in 10.0 mi WNW 12.7 mph 18.4 mph 0.01 in Rain Light Rain
2:26 AM 41.0 °F 32.2 °F 37.4 °F 87% 29.61 in 10.0 mi West 18.4 mph 23.0 mph 0.00 in   Overcast
2:56 AM 41.0 °F 32.5 °F 39.0 °F 93% 29.63 in 10.0 mi WNW 17.3 mph 27.6 mph 0.00 in Rain Light Rain
3:56 AM 41.0 °F 32.8 °F 39.0 °F 93% 29.62 in 10.0 mi WNW 16.1 mph 26.5 mph 0.00 in Rain Light Rain
4:56 AM 41.0 °F 33.9 °F 39.0 °F 93% 29.63 in 10.0 mi WNW 12.7 mph 19.6 mph 0.00 in Rain Light Rain
5:56 AM 41.0 °F 32.8 °F 39.0 °F 93% 29.63 in 10.0 mi WNW 16.1 mph 26.5 mph 0.00 in Rain Light Rain
6:32 AM 41.0 °F 33.5 °F 39.2 °F 93% 29.62 in 9.0 mi WNW 13.8 mph 24.2 mph 0.00 in Rain Light Rain
6:56 AM 41.0 °F 33.9 °F 39.0 °F 93% 29.66 in 10.0 mi WNW 12.7 mph 23.0 mph 0.00 in Rain Light Rain
7:04 AM 41.0 °F 33.9 °F 39.2 °F 93% 29.63 in 9.0 mi West 12.7 mph 24.2 mph 0.00 in Rain Light Rain
7:20 AM 41.0 °F 33.1 °F 39.2 °F 93% 29.64 in 10.0 mi WNW 15.0 mph 24.2 mph 0.01 in Rain Light Rain
7:56 AM 41.0 °F 32.5 °F 39.0 °F 93% 29.68 in 8.0 mi West 17.3 mph 27.6 mph 0.01 in Rain Light Rain
8:56 AM 41.0 °F 33.1 °F 39.0 °F 93% 29.71 in 5.0 mi West 15.0 mph 21.9 mph 0.02 in Rain Light Rain
9:56 AM 41.0 °F 32.8 °F 39.0 °F 93% 29.72 in 7.0 mi WNW 16.1 mph 24.2 mph 0.01 in Rain Light Rain
10:56 AM 41.0 °F 33.9 °F 39.9 °F 96% 29.75 in 9.0 mi NW 12.7 mph 23.0 mph 0.00 in Rain Light Rain
11:30 AM 42.8 °F 36.2 °F 39.2 °F 87% 29.73 in 10.0 mi WNW 12.7 mph 27.6 mph 0.00 in   Overcast
11:56 AM 43.0 °F 36.4 °F 39.9 °F 89% 29.76 in 10.0 mi WNW 12.7 mph 20.7 mph 0.00 in Rain Light Rain
12:54 PM 42.8 °F 36.2 °F 39.2 °F 87% 29.74 in 4.0 mi WNW 12.7 mph 21.9 mph 0.00 in Rain Light Rain
12:56 PM 42.1 °F 33.9 °F 39.9 °F 92% 29.77 in 4.0 mi WNW 17.3 mph 24.2 mph 0.00 in Rain Light Rain
1:44 PM 42.8 °F 35.1 °F 39.2 °F 87% 29.76 in 2.5 mi West 16.1 mph 23.0 mph 0.01 in Rain Light Rain
1:56 PM 42.1 °F 34.5 °F 39.9 °F 92% 29.78 in 2.5 mi WNW 15.0 mph 26.5 mph 0.01 in Rain Light Rain
2:03 PM 42.8 °F 36.6 °F 41.0 °F 93% 29.76 in 3.0 mi West 11.5 mph 19.6 mph 0.00 in Rain Light Rain
2:56 PM 42.1 °F 34.5 °F 39.9 °F 92% 29.80 in 5.0 mi West 15.0 mph 18.4 mph 0.01 in Rain Light Rain
3:53 PM 42.8 °F 35.4 °F 39.2 °F 87% 29.78 in 10.0 mi WNW 15.0 mph 20.7 mph 0.00 in   Overcast
3:56 PM 42.1 °F 34.9 °F 39.9 °F 92% 29.81 in 10.0 mi West 13.8 mph 20.7 mph 0.00 in   Overcast
4:53 PM 42.8 °F 37.5 °F 39.2 °F 87% 29.81 in 9.0 mi WNW 9.2 mph 18.4 mph 0.00 in Rain Light Rain
4:56 PM 42.1 °F 36.1 °F 39.9 °F 92% 29.84 in 9.0 mi WNW 10.4 mph 18.4 mph 0.00 in Rain Light Rain
5:56 PM 42.1 °F 35.7 °F 39.9 °F 92% 29.85 in 10.0 mi WNW 11.5 mph - 0.00 in Rain Light Rain
6:56 PM 41.0 °F 34.7 °F 39.9 °F 96% 29.87 in 7.0 mi WNW 10.4 mph 18.4 mph 0.00 in Rain Light Rain
7:56 PM 41.0 °F 33.5 °F 39.9 °F 96% 29.88 in 10.0 mi WNW 13.8 mph 20.7 mph 0.01 in Rain Light Rain
8:56 PM 41.0 °F 35.8 °F 39.9 °F 96% 29.91 in 8.0 mi WNW 8.1 mph 17.3 mph 0.01 in Rain Light Rain
9:45 PM 41.0 °F 35.8 °F 39.2 °F 93% 29.90 in 10.0 mi WNW 8.1 mph - 0.01 in Rain Light Rain
9:56 PM 41.0 °F 35.2 °F 39.0 °F 93% 29.93 in 10.0 mi WNW 9.2 mph - 0.01 in Rain Light Rain
10:13 PM 41.0 °F 36.4 °F 39.2 °F 93% 29.90 in 10.0 mi WNW 6.9 mph - 0.00 in Rain Light Rain
10:28 PM 41.0 °F 34.3 °F 39.2 °F 93% 29.90 in 10.0 mi WNW 11.5 mph - 0.00 in Rain Light Rain
10:56 PM 41.0 °F 35.2 °F 37.9 °F 89% 29.94 in 10.0 mi WNW 9.2 mph 16.1 mph 0.00 in   Overcast
11:56 PM 41.0 °F 36.4 °F 37.9 °F 89% 29.95 in 10.0 mi NW 6.9 mph - 0.00 in   Overcast